Tracking 27402 objects as of 3-Jun-2023
HD Live streaming from Space Station
objects crossing your sky now

LCS 1

Track LCS 1 now!
10-day predictions
LCS 1 is classified as:


NORAD ID: 1361
Int'l Code: 1965-034C
Perigee: 2,787.7 km
Apogee: 2,802.4 km
Inclination: 32.1 °
Period: 145.6 minutes
Semi major axis: 9166 km
RCS: 0.7892 m2 (medium)
Launch date: May 6, 1965
Source: United States (US)
Launch site: AIR FORCE EASTERN TEST RANGE (AFETR)

LCS 1 was an Air Force technology satellite launched from Cape Canaveral aboard a Titan 3A rocket. It was an aluminum sphere used for radar calibration.
Your satellite tracking list
Your tracking list is empty




NASA's NSSDC Master Catalog

Two Line Element Set (TLE):
1 01361U 65034C   23153.51328762  .00000011  00000-0  37067-3 0  9995
2 01361  32.1433 294.1436 0007983  43.1266 316.9856  9.89303049 99895
Source of the keplerian elements: AFSPC